カタリナ彗星

257P/Catalina (2020)

English version
Home page
Updated on September 18, 2021

---------------------------------------------------------------------

・ プロフィール

・ 写真集

・ 軌道要素

Epoch 2020 Sept. 28.0 TT = JDT 2459120.5
T 2020 Sept. 10.74131 TT                                Rudenko
q   2.1424426            (2000.0)            P               Q
n   0.13500344     Peri.  117.64901     +0.79759512     +0.58134354
a   3.7633346      Node   207.73798     -0.59861312     +0.79567157
e   0.4307063      Incl.   20.22181     +0.07419140     +0.17013655
P   7.30
From 2116 observations 2005 May 31-2021 Jan. 12, mean residual 0".6.
     Nongravitational parameters A1 = -0.14, A2 = -0.0302.

・ 星図

・ 光度変化

        m1 = 12.5 + 5 logΔ + 10.0 log r

---------------------------------------------------------------------

軌道要素はM.P.E.C. 2021-F20に掲載されたものです。
星図はステラナビゲータ Ver.10 (アストロアーツ) で作成したものです。
光度グラフはComet for Windowsで作成したものです。

---------------------------------------------------------------------

Copyright(C) Seiichi Yoshida (comet@aerith.net). All rights reserved.